RH
83 87 87 85 82 82 79 69 64 63 61 60 55 49 45 42 39 36 36 36 34 32 31 31 32 32 32 31 30 29 28 27 26 25 24 23 22 23 23 23 22 21 19 22 30 37 40 40 40 39 38 37 37 36 35 34 33 32 31 31 32 33 31 29 32 36 36 32 33 37 36 38 40 40 39 37 37 38 37 33 28 27 26 26 24 25 29 31
72 80 85 85 85 84 80 76 73 70 68 66 62 55 51 47 46 45 46 46 44 41 38 36 35 34 33 31 29 28 28 27 26 25 24 23 23 23 24 23 22 21 20 20 25 35 42 43 43 42 41 41 40 40 39 37 37 36 35 34 34 32 31 31 33 35 36 34 34 36 37 39 41 41 41 37 35 35 34 32 27 26 28 29 28 28 31 31
61 72 79 82 84 84 80 78 77 76 74 72 68 62 56 52 50 50 53 55 53 50 46 41 38 36 35 32 30 29 28 27 27 26 25 24 23 23 23 23 22 20 20 20 21 29 40 46 48 46 45 44 43 43 43 42 41 40 38 38 35 33 34 34 34 36 37 37 37 38 40 42 42 43 43 39 36 35 32 30 28 27 28 31 33 35 37 38
52 64 74 80 80 79 78 77 77 77 77 76 75 69 63 57 54 53 55 57 55 52 48 43 39 37 35 32 31 31 29 29 27 26 25 24 24 23 23 22 21 20 19 20 21 24 33 45 52 53 51 50 48 46 46 46 45 45 43 41 39 38 38 37 38 40 41 42 42 43 45 46 45 45 44 41 40 36 31 33 34 27 23 31 36 39 40 41
46 57 69 77 79 76 76 79 79 79 80 81 81 77 71 63 58 57 56 56 53 49 44 40 38 36 34 32 31 31 30 29 28 27 26 24 23 22 22 21 20 19 18 19 21 23 29 41 54 60 60 58 55 52 50 49 48 48 46 44 43 42 42 42 43 45 46 47 47 48 52 53 51 48 43 43 44 39 36 41 39 28 25 29 29 30 28 33
43 51 62 72 78 77 77 81 83 84 86 89 90 86 78 69 63 61 59 56 52 47 42 39 37 35 34 33 32 32 30 28 27 27 25 24 23 21 20 20 20 18 18 20 21 23 27 36 51 63 68 67 64 60 57 54 52 51 49 48 47 46 46 47 49 50 52 52 53 57 60 60 56 49 45 47 47 43 44 45 40 33 28 25 28 36 35 39
44 47 55 66 74 77 79 84 88 93 97 98 99 98 88 75 67 64 60 56 51 46 43 41 38 36 35 34 33 30 28 27 28 27 25 23 21 21 20 18 19 20 21 21 22 24 28 35 47 63 73 75 74 71 66 63 60 57 56 55 54 53 54 55 56 58 60 61 63 65 65 63 58 52 51 53 51 51 50 45 41 38 30 29 39 46 39 32
47 47 51 61 69 74 77 83 91 98 104 104 104 106 100 84 72 66 61 57 52 47 45 43 40 38 36 34 33 32 30 29 27 26 25 27 26 23 22 22 21 22 25 25 27 28 31 39 49 63 75 81 83 82 78 74 71 69 66 66 65 66 66 67 68 69 70 69 66 64 64 63 60 58 59 59 59 58 52 46 43 39 33 30 33 33 29 27
50 50 52 58 66 73 76 82 91 99 106 105 105 108 105 90 77 70 64 59 55 50 47 44 41 39 38 36 34 32 32 32 30 27 28 39 53 56 48 41 34 32 35 38 42 46 49 53 59 68 76 84 90 90 89 85 82 82 80 78 77 77 76 76 74 73 73 70 65 62 65 66 66 68 68 65 64 61 53 49 44 40 36 30 30 30 29 29
56 55 56 59 66 72 77 83 90 100 105 105 106 108 105 94 82 76 70 65 59 53 49 46 43 42 43 46 53 57 48 38 33 28 30 40 63 88 90 79 71 66 68 70 73 77 79 79 81 83 83 86 88 90 92 90 89 91 90 85 82 80 79 76 72 71 71 70 67 65 68 71 73 76 75 70 67 63 53 49 44 39 35 29 31 33 31 29
64 65 65 66 70 74 80 87 93 102 106 104 106 109 105 96 88 84 78 71 63 57 55 52 50 49 49 52 66 88 85 67 57 44 36 41 58 85 97 98 99 96 97 98 97 99 100 100 99 94 86 80 79 82 85 87 89 90 89 84 80 80 79 74 70 71 74 74 71 69 71 74 77 81 76 70 67 61 53 50 45 37 33 30 30 33 31 27
75 76 78 79 80 82 87 92 98 105 107 104 105 110 107 98 94 92 84 76 68 64 64 64 64 60 56 51 52 79 101 95 89 75 56 60 77 89 93 95 99 100 100 100 101 102 101 99 96 90 84 78 76 81 84 85 88 87 85 81 78 79 78 74 73 75 78 77 74 73 75 76 80 82 73 68 66 59 53 48 44 39 32 30 29 31 33 30
86 88 91 93 94 95 96 100 104 105 105 103 105 110 106 100 98 94 87 80 74 73 76 77 76 67 56 51 42 56 91 101 102 96 76 73 89 97 98 98 99 101 100 100 103 102 100 98 97 96 94 92 91 92 90 89 90 87 82 77 74 76 74 73 77 79 78 75 75 77 78 79 80 77 67 65 66 57 50 46 47 43 31 29 29 27 29 34
96 97 99 101 103 105 105 106 105 103 103 103 105 108 106 103 97 90 84 79 77 78 85 85 78 66 51 45 37 40 69 89 99 102 85 75 85 94 101 104 104 104 102 103 104 102 103 103 104 105 104 105 104 99 94 92 90 85 80 75 74 76 68 71 82 80 74 75 79 82 82 82 78 69 63 62 61 56 49 41 42 43 35 30 26 23 25 34
103 103 102 102 103 105 106 105 104 103 102 102 104 107 107 104 95 87 82 78 79 84 91 86 71 58 44 42 49 57 73 85 92 100 95 86 89 95 101 105 104 104 103 103 103 101 102 103 103 103 104 108 109 105 100 96 91 88 87 81 80 82 67 71 90 81 75 82 85 86 83 82 74 60 58 60 58 53 47 39 38 38 34 27 24 24 21 25
104 103 102 101 101 102 103 102 102 102 101 102 103 106 107 103 94 86 83 80 83 91 93 79 61 49 46 60 77 87 95 97 94 97 99 99 98 98 100 102 101 100 101 100 101 101 101 102 102 101 103 105 107 107 106 103 98 94 95 90 89 92 78 77 91 85 82 87 85 83 77 75 69 52 51 57 53 47 42 40 38 32 28 26 25 24 23 31
103 102 101 100 100 101 101 101 102 101 102 102 101 104 105 99 92 87 88 88 90 96 88 67 54 46 51 80 97 98 101 101 100 100 99 100 100 100 100 100 101 100 100 101 101 101 100 101 101 101 102 104 105 106 107 107 102 96 97 99 96 96 89 81 83 83 82 80 76 72 67 66 62 49 46 50 48 42 39 36 32 30 29 27 25 24 31 37
101 101 101 100 100 100 100 102 102 101 103 102 100 104 102 93 90 90 91 93 95 93 76 56 54 44 48 85 103 100 103 100 99 101 100 101 99 101 101 100 101 100 100 101 101 101 100 100 101 101 102 107 108 105 106 104 98 97 100 104 96 89 87 77 70 73 72 67 63 60 57 56 53 48 43 43 43 37 34 31 25 29 28 24 25 25 29 30
101 101 100 100 100 100 101 102 101 102 103 101 102 102 96 92 91 90 89 92 93 84 65 55 56 42 46 88 106 99 101 100 99 99 97 98 99 100 101 100 100 100 100 100 100 100 100 101 103 103 104 108 106 101 103 100 97 102 101 96 88 80 78 70 61 61 61 58 54 51 50 48 46 44 38 36 37 32 30 27 24 33 39 37 31 27 36 47
100 100 100 100 100 100 101 101 100 102 102 101 102 99 96 96 92 87 86 93 95 82 66 60 59 43 40 81 107 100 100 100 98 100 98 98 99 100 100 100 100 100 100 99 99 100 102 104 104 103 104 104 101 100 102 98 95 96 90 83 78 73 69 64 57 53 53 50 46 45 42 40 37 35 32 29 32 35 32 28 27 34 43 44 38 33 39 53
100 99 100 100 100 100 100 101 100 101 101 101 102 100 101 101 96 90 87 96 100 86 72 64 58 44 37 71 106 103 99 102 99 100 100 100 100 99 100 100 99 100 100 99 99 101 103 104 103 103 102 98 96 95 92 86 81 77 72 68 64 61 57 53 49 45 43 40 37 35 31 30 27 27 28 22 33 48 41 34 34 31 33 34 32 34 38 53
100 100 100 99 100 100 99 100 101 100 102 102 101 101 102 100 97 92 90 100 104 87 75 66 55 45 35 55 94 104 99 100 101 100 101 100 100 100 101 100 100 101 100 99 101 102 101 98 98 97 91 84 80 78 72 66 61 56 52 50 47 45 43 40 38 35 32 29 27 25 23 24 22 25 26 19 33 52 47 42 41 35 33 33 35 44 53 66
100 99 100 100 100 100 100 100 100 100 102 101 100 100 100 98 96 92 93 102 102 90 80 66 51 45 38 41 70 98 104 101 100 101 101 100 99 98 99 100 101 101 99 98 98 94 89 85 82 78 70 63 59 55 51 46 42 39 38 37 35 34 33 31 29 27 25 23 22 21 21 22 22 25 28 24 30 43 45 45 43 36 31 34 45 47 46 49
101 100 100 100 100 100 100 100 100 100 101 100 100 100 98 98 95 91 96 100 97 93 83 65 50 46 46 43 53 79 98 103 101 101 100 98 96 94 97 99 97 94 90 87 82 74 70 66 60 56 50 45 43 40 37 36 34 33 33 31 31 30 28 27 25 24 24 23 22 22 21 22 24 26 29 27 28 35 39 37 36 36 28 27 36 39 50 60
101 100 100 100 100 101 100 101 101 100 100 100 100 100 100 100 93 89 97 98 95 96 84 64 54 51 51 51 51 62 80 92 96 96 94 92 90 88 89 88 83 78 72 67 62 56 53 50 44 41 39 37 36 35 34 34 33 33 31 30 29 28 26 26 25 24 24 24 23 23 22 24 26 26 28 29 29 33 34 29 29 30 28 25 23 34 64 78
102 100 99 101 100 100 100 100 99 98 99 101 101 101 101 103 97 90 97 101 98 100 89 68 58 56 53 51 50 52 58 65 72 77 76 76 76 74 72 68 62 58 54 50 48 45 42 40 39 37 37 37 37 37 36 36 35 33 32 30 29 28 26 25 24 23 24 24 22 23 24 25 26 26 30 31 28 30 30 26 25 25 26 26 22 27 46 67
103 102 101 102 100 100 100 98 96 95 97 99 101 102 101 104 101 93 98 104 100 101 96 77 64 59 56 54 54 53 51 50 52 54 54 55 56 54 53 50 47 45 45 45 44 42 40 39 40 40 41 42 41 40 39 38 37 36 33 32 31 29 26 25 25 23 23 24 23 25 25 25 26 27 31 32 28 28 28 24 23 24 23 22 23 23 27 52
102 102 103 103 102 101 101 100 98 98 99 98 100 103 102 104 102 98 102 103 101 105 103 87 72 66 62 61 61 61 62 60 55 52 51 49 47 47 47 46 47 49 49 49 48 45 45 46 47 48 48 46 44 43 41 40 39 37 33 33 32 29 27 27 27 26 26 25 25 27 27 26 26 27 31 31 27 27 27 24 22 22 23 21 20 20 22 36
101 101 102 102 104 104 103 103 102 104 105 100 99 103 103 103 103 103 104 101 100 105 104 96 85 75 68 67 67 69 73 71 66 66 66 61 56 55 54 54 57 58 56 57 56 52 53 57 57 56 53 49 47 45 42 41 39 36 34 34 33 30 29 29 27 27 27 25 27 29 28 26 25 28 32 31 28 28 25 25 24 22 24 23 21 21 21 30
103 102 101 101 103 104 105 105 106 110 111 106 101 99 101 103 103 103 102 101 103 103 101 101 97 87 78 74 71 72 76 77 76 75 73 69 67 65 64 63 65 64 61 65 66 60 62 68 67 62 57 52 50 46 43 42 39 37 36 36 34 33 31 29 27 27 26 25 28 28 27 27 27 29 31 30 32 33 28 25 25 25 28 24 26 32 26 29
105 102 101 103 105 105 106 105 106 108 109 108 103 98 98 101 104 104 102 101 103 102 100 101 101 98 93 85 78 75 75 77 81 81 76 73 71 70 70 71 72 70 68 72 74 68 68 74 72 67 61 54 51 48 47 46 42 40 40 38 36 34 31 28 27 26 25 28 30 28 28 28 29 32 32 32 38 38 34 33 28 25 28 25 30 41 40 43
105 104 105 106 106 105 105 103 102 103 105 107 105 101 97 96 102 105 105 103 97 95 99 101 100 101 101 99 94 90 84 80 83 85 84 81 77 73 73 72 71 69 67 71 76 75 75 78 76 70 64 58 54 54 52 48 45 44 42 39 37 34 31 29 28 28 29 30 30 28 29 30 31 35 37 37 41 39 36 35 32 30 29 25 28 33 34 42
107 111 109 105 101 98 98 97 96 99 104 107 107 106 101 97 99 103 107 106 96 93 101 104 102 100 101 102 102 100 96 91 90 91 90 89 85 78 74 70 68 69 70 70 72 76 79 80 77 73 68 61 59 60 56 51 47 45 44 41 38 36 33 32 32 32 31 31 33 30 28 32 32 33 40 43 41 39 37 36 31 30 33 34 35 32 27 33
107 110 105 100 98 94 92 89 88 91 97 102 105 108 108 105 102 103 106 105 101 101 104 104 104 102 100 100 100 101 101 98 98 99 98 96 93 86 80 75 75 80 81 72 67 70 74 74 72 70 65 62 65 67 60 51 47 48 48 42 38 38 38 38 35 36 40 42 45 40 32 35 35 34 44 45 35 33 40 48 40 27 35 48 54 49 35 32
106 108 100 92 89 86 83 82 81 83 85 89 94 101 107 108 106 104 102 102 105 105 103 104 107 105 104 102 100 100 101 100 100 101 101 100 99 96 94 91 91 92 86 73 67 70 71 71 67 62 60 65 74 70 58 51 51 53 50 40 39 43 43 41 37 40 52 53 50 46 42 44 41 37 41 41 48 60 58 55 47 33 37 48 53 53 45 50
103 105 100 88 81 77 73 71 70 73 75 77 82 90 96 100 103 104 102 103 106 104 103 104 104 106 109 106 103 102 101 100 101 101 101 101 100 100 100 100 99 99 94 87 84 77 72 71 66 62 64 73 79 70 56 53 55 54 49 41 42 46 47 45 40 40 48 48 45 47 49 52 48 49 55 49 58 77 67 50 46 39 35 35 35 37 37 47
104 103 97 85 78 72 66 64 61 61 63 66 71 77 82 89 97 102 103 105 104 102 105 105 100 103 107 105 104 106 104 103 103 102 101 101 100 100 100 100 101 102 100 100 95 79 71 73 71 71 76 79 79 70 58 54 57 56 49 42 44 49 50 49 46 43 43 41 40 40 43 48 50 59 71 65 58 60 54 51 54 46 34 30 30 27 24 27
104 101 93 82 74 69 64 61 58 56 55 56 60 62 65 72 81 90 97 103 104 102 103 104 102 103 102 101 104 105 104 106 105 102 102 103 101 101 101 100 101 102 101 102 95 79 76 82 83 85 88 86 80 70 59 56 60 58 48 44 48 50 51 52 51 49 49 46 42 37 35 37 42 51 63 74 79 72 65 74 76 55 43 46 39 29 27 24
104 97 87 78 71 66 63 60 57 56 54 53 53 52 54 58 63 71 80 91 101 105 104 102 102 104 102 101 103 102 102 104 104 105 107 105 102 101 101 101 102 103 102 101 94 86 88 92 94 95 94 89 79 68 62 63 63 56 47 45 47 49 57 64 61 58 60 57 50 41 35 36 43 51 62 81 91 80 72 87 87 65 62 66 48 36 41 36
107 96 83 76 72 66 64 62 60 58 56 55 53 52 52 52 53 58 64 74 87 97 103 103 102 103 103 102 102 101 101 103 105 108 109 105 103 102 101 101 103 104 103 101 97 95 97 100 103 102 95 88 78 68 65 65 61 53 46 47 50 53 60 63 65 77 84 76 64 49 39 43 53 57 65 78 88 78 66 75 84 80 80 70 44 34 39 41
110 102 88 78 73 70 67 65 62 61 59 58 57 56 55 54 53 54 57 64 73 84 94 100 102 103 103 103 103 101 101 103 103 106 108 106 105 104 102 102 103 104 103 102 101 100 101 105 107 100 90 84 78 70 66 66 62 52 46 51 59 59 58 58 67 90 102 95 87 70 51 53 65 69 64 60 68 72 59 54 63 71 72 54 37 35 31 32
113 112 102 87 78 74 71 69 67 65 64 63 63 62 60 59 58 56 55 57 65 78 90 96 99 102 104 104 103 102 102 103 103 105 107 106 103 102 103 103 102 102 102 100 99 100 103 106 103 93 87 90 87 75 69 68 60 50 49 58 66 62 60 69 81 93 99 100 100 87 65 58 65 71 68 60 66 73 65 55 52 62 73 56 38 35 29 28
109 113 110 100 89 81 77 74 72 71 71 70 70 68 66 64 62 60 58 56 58 70 89 101 103 102 105 105 105 105 105 104 104 105 105 102 101 102 104 102 100 102 101 97 97 100 103 105 101 92 90 97 94 80 71 65 55 51 54 63 69 67 69 84 94 92 91 98 105 95 75 63 60 64 72 71 69 70 71 69 60 67 84 70 44 35 30 28
104 103 104 104 100 93 87 82 78 76 76 75 73 70 66 63 60 57 57 56 55 59 75 97 107 103 102 104 105 105 105 106 106 105 104 102 101 104 104 101 101 101 99 99 102 103 104 105 103 98 95 95 91 84 75 61 54 58 63 67 73 74 78 90 95 91 91 99 107 101 87 75 64 62 72 74 69 70 77 80 70 63 68 62 48 37 29 31
102 99 102 106 104 98 92 86 82 79 76 73 68 63 59 55 52 50 50 52 55 55 61 81 101 104 100 100 102 101 101 104 103 102 103 102 102 104 102 100 101 101 100 102 104 103 101 102 102 102 102 95 87 84 78 65 60 63 66 74 81 80 84 91 92 96 101 102 105 103 98 92 76 65 67 66 64 68 76 84 80 67 57 50 45 37 29 39
106 107 108 107 102 96 90 83 77 72 67 62 57 52 49 47 46 46 48 50 53 56 56 64 84 101 103 100 100 100 99 100 100 101 102 101 102 102 101 100 100 100 101 101 100 101 102 101 102 102 100 92 81 79 85 89 87 77 74 81 84 83 91 96 94 97 100 101 106 105 101 102 96 87 86 79 71 67 70 81 85 74 58 45 40 39 33 44
111 111 107 101 93 86 79 71 65 60 55 51 49 48 49 51 52 54 57 60 63 65 63 61 70 89 102 103 101 100 100 101 101 101 100 100 101 100 100 101 101 101 102 100 100 104 104 102 105 104 96 89 81 75 83 101 105 94 91 95 92 92 99 100 98 99 96 97 104 103 99 100 97 93 93 89 82 73 66 72 77 70 58 45 40 41 36 42
108 100 92 87 80 73 67 60 54 50 48 49 51 56 59 61 65 66 67 72 77 80 81 80 79 85 97 104 104 101 100 100 101 100 100 101 101 100 100 100 100 100 100 100 103 105 104 104 106 105 97 87 81 76 83 99 103 98 99 100 97 101 105 101 100 102 98 96 100 102 101 100 94 91 90 86 87 85 74 67 69 66 56 46 40 40 39 40
91 81 77 73 68 63 58 54 52 52 54 57 60 64 66 67 70 71 71 74 79 83 87 91 92 93 97 104 107 106 103 101 100 99 99 101 101 103 104 103 102 102 100 103 106 104 104 106 106 106 98 83 72 72 83 97 102 101 101 100 102 107 103 94 94 98 95 91 97 103 102 98 98 101 102 96 91 92 85 72 67 61 52 46 40 37 40 38
74 71 68 63 59 58 58 57 58 60 62 65 66 67 68 69 69 70 70 72 73 75 79 83 86 89 90 94 98 101 103 105 105 103 102 102 102 103 105 103 103 104 102 105 107 104 103 108 110 104 92 78 68 67 80 97 102 101 101 101 105 108 100 92 95 100 94 87 95 104 101 99 101 101 104 105 93 81 75 69 64 57 47 43 39 35 39 37
69 66 60 57 58 62 62 60 61 65 67 69 69 68 69 70 70 70 72 72 71 69 70 72 74 74 74 77 78 80 86 94 97 99 100 102 103 105 105 104 105 106 104 102 99 96 97 102 105 96 81 76 74 69 78 98 104 100 100 101 104 104 97 93 96 98 91 85 95 104 101 99 101 96 97 105 101 86 73 65 62 55 46 42 39 33 35 37
63 60 58 61 64 64 63 65 68 70 71 70 69 68 68 68 68 67 67 67 65 64 63 62 62 59 58 60 61 61 66 70 72 75 77 80 86 92 93 94 94 93 95 97 94 93 96 96 95 88 77 78 86 83 81 90 99 101 103 104 105 101 94 90 91 91 85 80 89 103 106 101 100 100 97 100 105 99 80 65 59 55 48 42 38 34 32 34
Wind_Speed
87 85 84 82 80 78 77 76 76 76 75 75 74 74 73 73 73 72 72 72 72 71 71 71 70 70 69 69 68 68 68 69 69 69 69 69 69 68 68 68 69 69 69 70 70 70 70 69 69 68 68 67 67 66 66 66 65 65 64 64 64 66 65 63 61 62 62 60 58 58 58 59 59 59 60 61 61 62 62 62 60 56 56 57 54 55 57 56
87 85 84 82 81 79 77 76 76 76 75 75 75 74 73 73 72 72 71 71 71 71 71 70 69 69 68 68 67 67 67 68 68 68 68 68 68 67 68 68 69 69 70 70 70 71 70 70 70 69 68 68 67 67 66 66 66 66 65 65 66 66 65 63 63 63 63 62 60 60 60 60 60 60 61 62 62 62 63 62 59 55 56 57 54 55 58 60
87 85 84 82 81 79 78 78 77 77 76 76 76 75 74 73 72 72 71 71 71 71 71 70 69 68 68 67 67 67 67 67 67 67 67 67 67 67 67 68 69 70 70 70 70 71 71 70 70 70 69 68 68 67 67 67 66 66 66 67 67 66 65 65 64 64 64 63 62 62 62 62 62 61 62 63 63 64 63 61 59 57 57 56 55 56 58 60
87 85 84 82 81 81 80 79 78 78 78 77 77 76 75 73 72 71 71 71 71 71 70 69 68 67 67 67 66 66 67 67 66 66 66 66 66 66 67 68 69 69 70 70 70 70 71 71 70 70 69 69 69 68 68 68 67 67 67 68 67 66 66 65 65 65 65 64 63 63 63 64 63 62 64 64 64 65 62 59 61 60 56 56 56 57 58 58
87 86 84 83 82 82 81 80 79 78 78 78 78 77 76 74 72 71 70 70 70 69 68 67 66 66 66 65 65 66 66 65 65 65 65 65 66 66 67 68 68 69 69 70 70 70 70 70 70 70 70 69 69 69 69 68 68 68 68 68 68 67 67 65 65 66 65 65 65 65 65 64 64 64 64 64 65 65 60 59 63 62 58 59 60 60 60 59
86 85 84 83 82 82 82 81 80 79 79 78 78 78 77 75 72 71 70 70 69 68 67 66 65 64 64 64 64 64 65 64 64 65 64 65 65 65 66 67 67 68 69 70 70 70 70 70 70 70 69 69 69 69 70 70 70 70 69 69 68 68 67 66 67 66 67 67 66 66 66 65 65 66 64 64 65 63 61 61 62 62 60 60 59 58 60 60
85 85 84 83 83 82 82 82 81 79 78 78 78 78 78 75 72 71 70 69 68 67 66 64 64 63 63 63 63 63 63 62 63 64 63 63 64 64 65 66 67 67 68 69 70 70 70 69 69 69 70 70 70 70 70 71 71 71 70 70 69 68 68 68 68 68 68 68 67 67 66 66 66 66 65 65 64 62 62 61 61 61 60 59 58 60 63 63
83 83 83 83 82 82 82 81 81 79 78 77 77 77 77 75 72 70 69 68 67 66 64 63 63 62 62 62 62 62 61 62 62 62 60 60 60 61 62 63 64 66 67 68 69 69 69 69 68 69 69 70 70 71 71 72 72 71 71 71 70 70 69 69 69 69 69 69 69 68 67 67 66 65 65 65 63 62 62 61 61 61 61 61 62 64 65 63
81 81 81 82 82 82 81 81 80 78 77 76 76 76 76 74 71 69 68 66 65 64 63 62 61 61 61 61 61 61 61 61 61 61 58 56 54 54 56 58 60 62 63 65 66 67 67 67 68 68 69 69 70 71 72 72 72 72 72 71 71 71 71 70 70 70 70 70 69 68 67 66 65 64 65 64 63 63 62 61 61 61 61 61 61 64 63 62
79 79 80 80 80 81 80 80 79 78 76 75 74 75 75 73 70 68 66 65 63 62 62 62 61 60 59 58 57 57 59 60 60 60 58 55 52 48 47 50 53 54 56 58 59 61 62 63 65 66 68 69 70 71 71 71 71 71 71 71 71 71 71 71 71 70 70 69 68 67 65 64 63 64 64 62 62 63 62 61 61 60 61 60 62 65 64 63
77 77 78 78 79 79 79 78 77 76 75 74 73 73 73 71 69 67 65 63 62 61 61 61 61 60 59 57 54 53 53 54 55 57 57 56 54 51 48 48 49 50 51 53 54 56 58 59 62 65 68 69 69 70 70 70 70 71 70 71 71 70 70 70 69 68 68 67 65 64 63 63 62 63 63 61 62 63 62 61 61 61 62 61 63 64 64 63
75 75 75 76 77 77 77 77 76 75 74 73 72 72 72 70 67 65 64 62 61 61 60 60 60 60 59 57 55 55 51 48 50 53 54 54 53 53 53 54 54 55 57 57 58 60 61 62 64 66 67 68 68 68 69 69 69 69 69 70 69 69 69 68 67 66 66 64 63 62 63 63 62 64 63 59 62 64 62 62 61 62 63 61 62 62 62 61
74 73 74 74 75 75 75 75 74 73 72 71 71 71 70 68 66 64 62 61 61 60 59 59 60 59 58 57 56 57 55 48 47 50 52 52 52 53 54 56 57 58 59 60 61 62 63 64 64 65 66 66 66 67 67 67 68 68 68 68 68 68 67 66 65 65 65 62 61 62 63 63 64 65 61 58 62 64 64 62 59 62 64 61 61 61 59 59
72 72 72 73 74 74 74 74 73 72 71 70 69 69 68 67 64 62 61 60 59 58 57 58 58 57 57 55 54 54 55 54 49 48 50 50 49 50 52 54 55 56 57 58 60 60 61 62 62 63 64 64 65 66 66 66 67 67 67 67 67 68 67 63 64 65 63 60 60 62 62 64 66 64 58 59 63 64 65 64 60 62 64 62 61 60 58 56
72 72 72 72 73 73 73 73 72 71 70 68 68 67 66 65 63 60 59 58 58 57 56 57 56 55 54 52 51 50 51 55 53 50 50 49 46 45 46 49 51 53 54 56 57 58 59 60 61 62 63 63 64 65 65 65 66 65 66 66 65 67 66 61 62 64 60 58 60 61 61 64 68 64 57 60 64 65 66 64 62 64 63 62 59 57 57 55
71 71 71 72 72 72 72 72 71 70 69 68 67 66 65 63 61 59 58 57 57 56 56 56 54 53 52 50 50 49 48 51 53 52 50 49 47 47 48 49 51 52 53 54 55 56 57 58 59 60 61 62 63 63 63 64 64 64 64 65 64 65 64 60 60 61 58 58 60 61 61 64 70 65 57 61 67 67 66 63 63 65 63 60 57 54 53 51
71 71 71 71 72 72 71 71 70 70 69 68 66 65 64 63 61 59 58 56 56 55 55 55 53 51 50 50 50 50 50 50 51 52 52 51 50 51 52 54 55 56 56 56 56 57 57 57 58 58 59 59 60 61 61 62 62 62 61 62 62 61 62 60 58 58 58 59 60 62 62 64 70 67 59 64 69 68 67 64 62 64 60 56 55 51 50 49
70 70 71 71 71 71 71 70 70 69 69 67 66 65 64 63 61 59 57 56 55 55 55 53 52 50 50 50 51 52 53 53 54 55 55 56 56 56 57 57 58 59 59 59 59 59 58 57 57 57 56 57 59 59 59 60 59 58 57 59 60 59 61 62 59 57 59 62 62 63 65 67 70 70 65 65 69 69 68 65 61 60 58 56 53 49 49 48
69 70 70 70 71 71 71 70 69 69 68 67 66 65 65 64 62 59 57 56 56 55 53 52 52 50 50 50 52 54 54 55 56 56 57 58 58 59 59 60 60 61 61 60 59 58 57 57 56 54 54 56 57 56 57 57 54 56 58 60 61 60 61 64 61 58 61 63 64 65 68 69 70 71 69 66 67 68 66 62 57 55 53 52 50 46 45 42
68 69 69 70 70 70 70 70 69 69 68 67 66 65 64 63 61 59 57 56 56 55 53 53 52 50 50 51 52 53 54 55 56 57 58 59 59 60 60 60 61 61 61 59 57 56 55 54 53 53 54 56 55 54 56 55 54 59 61 61 62 63 64 65 62 60 62 65 67 68 69 71 70 71 71 65 62 63 63 58 54 53 51 49 48 44 42 40
68 68 68 69 69 70 70 69 69 69 68 67 67 65 64 63 61 59 58 57 56 55 54 53 52 50 49 51 52 53 53 54 54 55 57 57 58 58 58 59 59 58 57 55 53 54 53 52 52 54 55 54 54 55 57 56 58 62 62 63 64 64 67 66 62 63 65 65 68 69 68 69 68 67 69 63 56 59 60 56 54 52 51 50 47 43 42 41
68 67 67 68 68 69 69 69 69 69 69 68 67 65 64 63 61 59 58 57 55 54 53 52 51 50 50 52 53 51 51 52 53 53 55 55 56 55 55 55 54 54 53 51 51 53 52 51 54 56 54 54 56 58 58 58 60 62 62 64 64 64 68 66 63 65 65 64 65 66 63 64 63 62 65 61 54 57 58 55 54 52 49 48 45 43 42 40
69 68 68 67 67 68 68 69 70 70 69 68 67 65 64 63 61 60 59 57 55 53 52 51 50 49 49 52 53 52 52 53 53 53 54 54 54 53 52 52 53 53 51 50 53 53 52 53 55 55 54 56 57 57 57 58 60 61 62 63 63 65 66 64 64 64 62 61 61 62 60 60 59 58 60 59 54 56 57 54 54 52 49 46 44 44 44 44
70 70 70 69 68 67 67 68 69 69 69 68 67 65 64 63 62 61 59 57 55 52 52 50 49 48 48 50 53 54 54 54 53 53 53 52 52 51 51 52 53 51 50 52 53 52 53 53 53 54 55 56 56 55 56 58 59 60 62 62 63 64 63 62 63 61 59 61 60 60 59 57 57 57 58 58 54 54 57 56 53 52 50 47 45 43 43 46
73 72 71 71 71 70 69 69 68 68 68 68 67 66 64 64 63 61 59 58 55 52 51 50 48 47 46 48 51 53 55 55 54 53 53 52 51 51 52 52 51 50 51 52 51 52 53 51 51 54 54 54 54 54 55 57 58 59 61 62 62 63 61 60 62 59 58 61 60 59 59 57 57 57 57 57 54 53 57 57 53 51 50 48 44 42 43 46
74 74 74 74 73 73 73 72 71 70 68 67 67 66 64 64 63 62 60 59 56 52 51 50 48 46 45 46 47 50 52 53 53 52 52 52 51 51 51 50 50 50 50 51 50 51 51 49 51 53 51 52 53 53 55 56 58 60 60 60 60 61 59 58 60 58 57 60 60 58 58 58 57 57 56 58 56 55 57 56 52 49 49 48 45 43 46 47
74 75 75 75 75 75 74 73 72 71 69 68 66 65 64 64 64 63 62 61 57 52 51 50 48 47 46 44 45 46 47 48 49 48 49 50 49 48 48 47 48 48 48 48 48 49 49 48 51 51 50 52 53 53 55 55 57 60 59 58 60 61 59 57 58 57 56 59 58 57 59 58 57 57 57 58 58 56 57 55 51 48 48 48 47 44 46 49
74 75 75 75 75 75 74 73 72 71 70 69 67 66 65 65 65 64 63 62 57 53 53 52 50 50 48 47 47 45 45 46 47 45 46 47 45 45 46 45 46 47 47 47 47 48 48 48 50 50 51 52 52 53 55 55 57 60 58 58 61 61 58 58 58 56 57 57 56 57 58 57 56 56 56 58 58 57 56 55 51 48 47 48 47 45 45 49
73 74 74 73 73 73 73 72 71 71 71 70 68 67 66 65 66 65 64 62 57 55 55 53 52 52 51 51 50 48 48 48 46 45 47 47 45 46 46 46 47 48 47 46 49 49 47 49 50 50 51 52 52 54 54 54 57 59 58 59 61 60 58 58 56 55 56 54 53 54 56 55 54 55 56 57 57 56 55 54 50 46 45 46 46 44 44 46
73 73 72 72 71 71 72 71 71 71 71 71 70 69 67 67 66 66 65 62 59 58 56 54 54 53 53 53 53 52 51 50 48 48 49 48 48 48 48 49 49 50 48 47 51 50 47 51 52 51 51 52 53 54 54 54 57 58 57 58 58 57 57 56 54 53 53 50 49 51 52 51 52 54 55 53 52 53 53 52 48 44 43 43 42 39 39 42
71 72 72 71 71 72 72 71 71 72 71 71 70 69 68 67 67 66 64 63 62 61 58 56 54 54 55 55 54 54 54 52 51 51 51 51 51 51 51 51 51 52 50 50 53 52 50 53 53 51 52 53 53 55 55 54 56 56 55 55 54 54 54 52 51 50 48 46 47 49 48 47 49 52 50 47 48 51 51 49 46 44 43 42 40 37 36 39
67 69 70 71 72 72 72 71 71 71 70 70 69 69 68 67 67 67 65 65 65 62 60 58 56 56 56 55 55 54 54 53 53 52 52 51 52 52 52 53 53 52 51 52 54 53 52 53 53 52 53 54 54 55 55 54 55 54 54 53 51 51 51 48 47 46 45 44 46 47 45 43 46 47 44 44 47 50 50 48 45 43 43 42 41 40 39 41
60 64 67 68 69 70 70 70 70 69 69 69 69 69 68 67 68 67 67 68 65 62 62 61 59 59 58 58 56 54 54 53 52 52 52 51 52 52 52 52 51 51 52 53 54 53 53 53 53 53 54 55 55 56 55 54 54 53 52 50 47 47 47 45 44 43 43 43 43 44 42 40 43 42 40 43 47 48 48 45 44 43 41 40 39 40 42 42
55 57 60 62 64 66 68 68 68 68 69 69 69 69 69 69 69 69 69 68 65 64 65 64 63 62 61 61 58 55 55 54 53 53 53 52 52 52 52 52 51 51 54 54 53 53 54 55 55 55 55 55 56 56 55 54 53 51 50 48 43 43 44 43 42 39 39 39 38 39 38 37 39 38 38 43 44 45 44 41 42 43 40 37 33 34 39 40
52 53 55 57 59 61 63 63 65 66 67 68 69 69 70 70 70 71 70 67 66 66 67 66 66 66 65 63 60 58 58 57 56 56 55 54 54 53 53 53 52 54 56 55 54 55 56 56 57 56 55 55 57 57 54 52 51 50 49 45 41 42 44 43 40 37 37 36 34 35 34 33 35 34 36 40 38 38 40 38 38 41 41 41 35 32 36 39
50 51 51 52 53 55 56 57 59 62 64 65 66 68 70 70 71 71 70 69 69 69 68 68 69 68 68 65 63 62 61 60 59 58 57 56 55 55 55 54 53 55 56 56 56 57 56 58 59 57 55 56 56 56 53 51 50 50 47 43 40 41 43 43 40 37 37 36 34 33 30 29 30 29 32 37 37 37 37 35 37 40 42 43 41 39 41 42
48 48 48 49 49 50 51 52 54 56 58 60 63 65 67 68 70 71 71 71 71 70 70 71 70 69 69 67 65 65 64 64 63 60 59 58 57 56 56 55 55 57 57 57 59 58 57 58 60 58 57 57 55 55 53 51 49 48 45 42 40 41 41 41 39 37 37 37 35 34 31 30 29 28 30 35 38 38 35 33 35 37 39 41 42 43 44 45
47 46 46 46 47 47 48 49 50 52 53 56 59 61 62 65 67 69 71 72 72 72 72 72 71 70 70 68 67 68 67 66 65 63 62 61 59 57 56 56 57 58 59 60 61 59 58 60 60 58 58 57 55 54 53 50 48 46 44 41 41 40 39 39 38 36 36 35 34 34 33 30 28 28 32 34 35 34 30 30 33 34 36 40 40 39 41 42
44 44 44 44 44 45 45 46 47 48 49 51 53 54 56 59 63 65 68 70 72 73 74 73 71 71 71 70 69 69 68 68 67 65 65 65 62 60 59 58 59 60 61 62 62 61 60 61 60 59 59 57 55 54 52 49 47 45 42 41 41 39 35 35 36 34 34 34 33 33 31 28 26 29 32 33 34 32 28 28 32 33 36 40 39 37 36 36
42 42 43 43 43 43 43 44 45 45 46 47 48 49 50 53 55 58 62 65 69 72 73 74 73 73 72 71 70 69 69 68 67 66 67 66 63 62 61 60 61 62 63 63 63 62 63 61 59 59 58 57 55 54 51 49 46 44 42 40 40 38 35 36 34 29 30 31 32 33 30 26 28 32 34 35 35 34 32 33 35 37 39 40 39 37 37 34
42 42 42 42 42 42 43 43 43 44 44 45 45 46 47 47 49 52 55 59 63 67 70 72 74 74 73 72 71 71 70 68 67 67 67 66 64 64 63 61 62 63 63 63 63 64 63 60 59 58 57 56 55 54 51 47 45 43 40 38 39 39 36 35 32 27 27 27 27 30 27 27 32 35 37 40 39 38 39 39 40 40 40 40 39 38 36 34
41 41 42 42 42 42 43 43 43 43 44 44 44 45 45 46 47 49 50 53 57 60 64 67 70 72 73 73 73 72 70 69 69 69 68 67 66 65 64 63 64 64 64 64 64 64 62 60 59 57 54 55 55 54 50 46 42 40 39 38 38 38 35 32 30 30 30 28 28 31 30 30 35 37 39 40 40 40 40 39 40 41 39 38 38 37 35 31
40 41 43 43 43 43 43 43 43 44 44 44 45 45 46 47 48 49 50 51 53 56 59 61 63 65 67 69 70 71 71 71 71 71 70 69 66 65 65 65 65 65 65 65 63 62 61 59 59 56 53 54 55 53 49 44 40 38 38 38 37 36 34 31 30 31 32 30 29 32 33 33 36 38 38 39 40 40 39 37 39 40 38 37 36 35 32 26
39 41 42 41 42 42 43 43 44 44 44 45 46 47 47 48 50 50 51 51 52 54 57 59 61 61 61 62 63 65 66 69 70 71 71 69 66 66 68 67 66 66 65 63 61 61 60 57 57 55 53 53 52 50 47 42 38 37 38 37 36 36 33 31 31 30 30 30 28 28 30 34 38 39 39 40 40 40 38 37 38 40 40 37 35 33 30 24
37 38 38 39 40 40 41 42 43 43 44 45 45 46 47 48 49 49 50 51 52 53 55 58 61 62 61 60 60 59 60 63 65 66 67 66 64 67 69 68 66 64 62 62 61 60 59 57 55 54 52 52 49 44 41 38 36 37 37 35 35 36 34 34 33 30 28 30 32 32 31 33 38 40 40 40 40 40 39 37 37 39 40 38 34 32 30 29
34 35 35 36 37 38 39 40 41 41 42 43 43 44 44 45 45 46 46 47 49 51 53 56 59 61 62 62 61 61 61 62 63 64 63 63 63 66 68 67 66 64 64 64 61 58 57 56 55 54 52 51 46 38 34 33 33 36 35 34 35 35 35 35 35 35 32 32 34 36 34 34 38 40 40 40 40 40 39 37 37 39 39 39 35 32 33 36
32 32 33 35 37 37 38 38 38 39 40 40 40 40 41 41 42 43 44 45 46 47 49 52 55 59 63 64 64 63 63 64 65 65 64 63 64 65 66 66 66 66 66 64 61 59 57 55 55 55 51 47 42 38 35 33 32 31 30 31 34 35 35 34 35 37 36 34 35 35 34 35 39 40 40 40 39 40 40 38 38 38 38 39 37 34 36 40
31 32 33 35 36 37 37 37 37 38 38 38 38 39 40 41 42 43 43 44 44 46 47 48 50 54 58 62 65 66 66 67 67 66 65 64 63 63 65 65 65 65 65 63 61 59 56 54 52 52 50 46 41 37 36 34 31 28 27 29 33 35 36 35 36 37 37 36 35 33 32 34 37 39 41 41 40 39 40 40 39 38 38 38 38 36 37 42
31 32 34 35 35 35 36 36 36 36 37 37 38 39 40 41 42 43 44 44 45 47 47 48 50 52 54 57 61 64 66 68 68 67 67 66 63 64 65 64 65 65 65 64 62 60 57 53 49 46 44 43 42 39 37 36 33 32 32 33 34 36 37 37 38 38 37 36 34 34 37 38 39 39 39 41 41 40 39 39 39 39 39 39 39 39 39 42
31 33 34 35 34 34 35 35 35 35 36 36 37 38 39 40 41 42 43 44 46 47 48 50 51 53 54 56 58 60 63 65 66 67 67 66 65 65 65 64 65 65 65 64 63 61 58 54 52 48 42 39 41 41 40 38 36 36 38 38 37 39 39 38 38 40 39 36 34 38 42 44 44 43 40 39 42 42 40 39 39 39 40 40 40 41 41 42
32 33 34 33 33 33 34 34 34 34 34 35 35 36 36 38 39 40 41 43 44 46 47 49 51 53 54 56 57 58 60 62 63 65 66 66 65 65 66 66 67 67 66 65 63 60 57 55 55 53 46 40 40 43 45 43 40 38 40 41 40 40 40 40 41 43 42 39 38 40 42 43 44 44 41 39 40 41 41 40 39 39 41 42 42 42 42 42
32 32 31 31 32 32 31 31 31 32 32 33 33 34 35 36 37 38 39 41 42 44 45 46 48 50 51 52 54 55 56 59 60 62 63 63 63 64 65 66 66 66 64 63 61 57 55 55 54 52 48 44 42 44 48 49 46 40 40 43 45 44 43 43 44 44 44 43 41 41 42 43 44 43 42 40 39 39 40 40 39 39 41 43 42 42 42 43
Wind_Direction
240 242 242 243 243 245 246 246 245 245 246 246 247 248 248 249 250 250 251 252 252 253 253 253 253 254 254 254 254 254 254 255 255 255 255 254 254 253 252 252 251 250 249 247 247 246 246 247 248 248 248 249 249 250 250 251 252 252 253 254 254 254 256 258 258 259 260 261 261 262 263 264 264 264 264 264 264 264 264 264 265 267 269 268 268 268 268 266
239 240 241 242 242 243 243 244 244 245 245 246 247 248 248 249 249 250 251 252 252 253 253 254 254 254 255 255 255 254 254 254 255 255 254 254 254 253 252 251 251 250 249 248 247 246 246 247 247 248 248 249 249 250 250 251 251 252 253 253 254 255 256 257 257 258 260 261 261 262 263 264 265 265 265 265 264 264 265 265 266 266 266 266 266 265 266 266
238 239 240 240 241 241 242 242 243 244 245 246 247 248 248 249 249 250 251 252 252 253 253 254 254 255 255 255 255 254 254 254 254 254 254 254 254 253 252 251 251 250 249 248 247 247 247 247 247 248 248 249 250 250 251 251 252 252 253 253 254 255 256 256 257 259 260 261 262 263 264 264 265 266 265 265 265 265 265 267 268 264 264 266 265 263 263 264
237 238 238 239 240 240 241 242 242 243 244 246 247 248 248 249 249 250 251 252 253 253 254 254 255 255 254 254 254 254 254 254 254 254 254 254 253 253 252 251 250 250 250 249 248 247 247 247 247 248 249 249 250 250 251 252 252 252 253 253 254 255 255 256 258 258 260 261 262 263 264 265 266 266 265 266 266 266 267 269 267 264 264 264 264 262 262 263
236 236 237 238 238 239 240 241 242 243 244 245 247 248 248 249 249 250 251 252 253 254 254 254 254 254 254 254 254 254 253 253 254 254 254 253 253 252 252 251 250 250 249 249 248 248 247 247 248 248 249 250 250 251 251 252 252 253 253 254 254 255 256 257 258 258 260 261 262 263 264 265 266 265 266 266 267 267 268 268 267 266 263 261 262 263 263 264
235 236 236 237 237 238 239 240 241 242 243 245 246 248 249 249 250 251 252 253 254 254 254 254 253 253 253 253 253 253 253 253 254 253 253 253 253 252 252 251 250 249 248 248 248 248 248 248 248 248 249 250 250 251 251 252 252 253 253 254 254 255 256 257 258 259 260 261 262 263 264 265 266 266 267 266 267 268 268 267 267 268 266 265 265 264 262 261
235 235 235 236 236 237 238 239 240 241 243 244 246 248 249 250 250 251 252 253 254 254 254 253 253 253 253 253 253 253 253 254 254 254 253 253 253 252 251 250 249 248 247 247 247 247 248 248 248 249 249 250 250 251 252 252 252 253 253 254 255 256 257 257 258 259 260 261 262 263 264 265 266 266 267 266 267 268 267 267 268 268 267 266 263 261 261 261
233 234 234 235 236 237 238 238 239 240 242 244 245 247 249 250 250 252 253 253 253 253 253 253 252 252 253 253 253 254 254 254 254 254 254 253 253 252 250 249 248 247 247 247 247 248 248 248 249 249 250 250 251 251 252 252 253 254 254 255 256 256 257 258 259 260 261 262 263 264 265 265 266 266 266 266 267 266 267 267 268 268 267 265 264 264 264 263
233 233 233 234 235 236 237 238 239 240 241 243 244 247 249 249 250 252 252 253 253 253 252 252 252 252 253 254 254 254 254 254 254 253 252 251 250 251 252 250 249 247 247 247 248 249 249 249 250 250 250 250 251 251 252 253 254 255 255 256 256 257 258 258 259 261 262 263 264 265 265 265 266 266 265 265 266 266 267 267 268 269 269 268 269 268 267 266
231 232 232 233 234 235 236 237 238 239 240 242 244 246 248 249 250 251 252 252 252 252 252 252 251 252 252 254 256 256 256 255 254 253 251 248 244 245 250 252 252 250 249 250 250 250 250 251 251 251 251 251 251 252 253 254 254 255 256 257 257 258 259 259 261 262 263 263 264 265 265 266 265 265 265 265 266 266 267 268 268 269 269 268 268 269 269 269
230 231 231 232 233 234 235 236 237 238 240 241 243 245 247 249 250 251 252 251 251 251 251 251 251 251 251 251 251 252 256 257 255 252 249 247 243 238 239 242 244 245 245 246 246 247 247 248 249 249 250 251 252 253 254 255 255 256 257 258 258 259 260 261 262 262 263 264 265 265 266 265 265 264 264 265 266 267 267 267 267 267 267 267 267 270 271 270
229 230 230 231 232 233 234 235 236 237 239 240 242 244 246 248 249 250 251 251 251 250 250 250 251 252 251 250 247 244 247 254 255 253 248 245 243 239 237 236 237 238 238 239 241 242 243 245 246 249 251 252 253 254 255 256 256 257 258 258 259 260 261 262 262 262 263 263 264 265 265 264 263 263 263 265 266 266 266 267 267 267 266 266 267 269 271 272
228 229 229 230 231 232 233 234 235 236 237 239 241 243 246 248 249 250 250 250 250 249 249 249 250 252 252 251 247 241 238 243 250 253 248 244 242 239 239 240 240 241 242 243 244 245 246 248 249 251 253 254 254 255 255 256 257 258 258 259 260 260 261 261 262 262 262 263 264 264 264 263 262 262 264 265 266 267 267 267 267 268 268 267 266 267 268 270
226 227 228 229 230 231 232 233 233 235 236 238 240 242 245 247 248 249 249 249 248 247 247 248 250 252 253 250 246 241 235 235 241 248 250 247 244 241 241 242 244 245 245 246 247 248 249 250 251 252 253 254 254 255 256 257 257 258 259 260 260 261 260 261 262 261 262 262 262 262 263 263 262 262 264 265 266 267 268 268 267 268 269 268 267 266 265 265
225 226 227 228 229 230 231 231 232 234 235 237 239 241 244 246 247 248 248 248 247 246 246 248 250 253 252 248 243 240 237 235 236 240 246 249 248 247 246 246 247 247 248 247 248 249 249 250 251 252 253 254 254 255 256 257 258 258 259 260 260 261 260 259 260 261 261 261 261 261 262 263 263 262 262 265 266 267 268 269 269 268 269 269 268 266 264 263
224 225 226 227 228 229 229 230 232 233 234 236 237 240 242 244 246 246 246 246 247 246 247 249 252 251 248 243 240 238 237 237 237 238 242 245 247 248 248 248 248 249 249 250 250 250 250 251 251 252 253 253 255 256 256 257 257 258 258 259 259 260 261 258 259 260 260 260 260 260 261 263 265 263 262 265 266 266 268 268 269 269 269 268 267 266 265 263
223 224 225 226 227 228 229 230 231 232 234 235 236 239 241 243 245 245 245 246 246 246 248 251 251 249 244 239 238 237 236 235 237 238 239 241 242 243 244 244 245 246 247 248 249 250 251 251 252 252 253 254 255 255 256 256 257 257 258 260 259 260 261 259 258 260 261 260 260 261 262 263 265 265 264 265 266 267 267 266 267 268 268 266 265 263 262 261
222 223 224 226 226 227 228 229 230 232 233 234 236 237 240 242 244 244 244 245 245 246 249 251 250 247 241 237 237 237 236 234 235 236 236 238 239 240 241 242 243 244 245 246 248 249 250 251 252 252 253 254 255 255 256 256 257 259 260 260 261 260 261 261 259 260 261 262 262 263 263 264 266 267 265 265 267 267 267 266 265 265 265 264 263 261 261 261
221 223 224 225 226 227 228 228 230 231 233 234 235 237 240 242 243 243 244 244 244 246 249 250 249 246 239 235 236 236 236 235 234 235 236 236 237 238 240 241 243 244 245 247 248 249 250 251 251 253 254 254 255 255 257 258 259 261 260 261 262 262 262 263 261 261 262 264 264 264 265 265 266 267 267 265 266 266 265 264 262 261 262 262 260 258 259 260
220 222 224 225 226 227 228 228 229 231 232 233 235 237 240 241 242 243 243 243 243 245 248 248 248 247 239 235 235 236 236 236 235 236 237 237 238 238 239 241 243 244 246 247 248 249 250 251 252 253 253 254 255 257 258 259 260 260 260 261 262 263 263 263 264 264 263 264 265 265 265 266 266 266 266 264 263 263 263 261 257 255 254 254 254 252 251 252
218 221 223 225 226 227 228 228 229 230 232 233 235 236 238 240 241 242 242 242 242 244 246 247 248 247 240 235 236 236 237 237 237 237 237 238 239 239 240 241 243 244 245 246 248 249 250 251 252 252 253 255 257 257 258 259 259 259 260 261 262 263 264 264 265 265 264 264 265 265 265 265 265 264 264 263 259 259 260 258 256 253 252 252 251 249 247 244
216 218 221 223 225 227 228 228 229 230 232 233 234 236 237 239 240 240 241 241 241 243 245 246 247 247 240 236 236 237 237 238 238 238 237 238 239 239 240 242 243 244 246 247 248 249 250 251 251 252 254 256 256 256 257 258 258 259 260 261 262 263 264 266 266 265 265 265 264 264 264 263 263 262 262 261 255 255 257 257 256 253 251 252 249 245 242 237
216 217 219 221 223 225 226 228 229 230 231 233 234 235 237 238 239 240 240 240 240 242 244 245 246 246 241 237 236 237 238 238 239 239 239 239 240 241 242 243 244 245 247 248 249 250 250 251 252 253 254 254 255 256 257 258 258 259 260 261 262 263 264 266 265 265 265 265 263 263 262 261 261 259 260 259 254 253 255 255 255 254 250 248 247 244 241 241
215 216 218 219 220 222 224 226 228 230 231 233 234 235 236 238 238 239 239 239 239 241 242 243 245 244 241 239 237 237 239 240 240 242 243 243 243 243 244 245 245 246 247 248 249 250 250 251 252 253 253 254 255 257 258 259 260 261 262 262 263 263 264 265 265 265 265 264 262 261 260 260 259 258 258 258 254 253 254 252 252 253 251 246 244 244 245 244
215 216 217 218 219 221 222 223 225 228 230 232 233 234 236 236 237 237 237 237 238 239 240 241 242 242 240 239 238 238 239 241 241 242 244 245 244 244 244 245 246 246 246 247 248 249 249 251 252 252 253 256 258 259 260 262 263 263 264 264 265 266 266 266 266 264 263 263 261 260 260 258 257 257 257 258 255 254 254 252 250 251 252 249 242 238 241 244
216 217 218 219 220 221 222 223 224 226 228 230 232 234 234 235 236 236 236 236 237 237 238 239 239 239 237 237 237 237 238 240 241 242 243 244 243 243 244 244 244 244 244 246 247 248 250 250 252 254 257 259 260 262 263 265 266 267 267 268 269 269 268 267 267 264 262 261 260 259 258 257 256 257 257 256 255 253 254 254 251 249 250 249 244 235 235 241
217 219 220 221 221 223 224 225 226 227 228 230 232 233 233 233 234 235 235 236 236 235 236 237 237 236 235 233 234 234 235 237 238 238 239 241 240 241 241 241 242 243 244 246 248 250 251 252 255 258 260 262 263 265 266 267 269 270 271 273 273 272 271 270 268 266 263 261 259 258 257 255 255 256 256 255 254 254 254 254 253 250 249 248 245 237 233 235
218 220 221 222 224 225 226 227 228 229 230 230 231 231 231 232 233 234 234 236 235 235 235 235 235 235 234 233 234 234 235 236 236 236 238 239 238 238 239 239 242 244 244 247 250 252 254 256 258 261 262 263 265 267 268 270 272 273 275 275 274 273 273 271 269 268 264 261 259 258 256 255 253 254 255 255 255 254 255 255 253 251 250 250 246 241 236 235
218 220 221 223 224 226 227 228 229 230 231 231 231 231 231 231 232 233 234 235 235 234 234 234 234 236 236 235 236 236 237 238 238 238 239 240 239 239 240 241 243 245 247 250 253 254 256 259 260 262 264 265 267 268 270 273 275 276 276 275 274 274 273 271 270 267 264 261 259 257 256 255 254 252 252 254 256 256 256 256 255 252 250 251 248 244 238 236
218 220 221 223 224 226 227 228 229 229 231 231 231 231 231 231 232 233 233 234 234 234 234 234 234 236 237 237 237 238 239 241 241 241 242 242 242 242 243 244 246 248 250 252 254 255 257 260 261 263 265 267 268 271 273 275 277 278 276 275 275 274 273 271 269 266 263 261 259 256 255 254 253 252 251 253 256 258 257 257 256 253 251 249 247 244 238 235
219 220 221 222 223 225 226 227 228 229 230 231 232 232 231 231 232 233 234 234 234 234 234 234 234 235 237 238 238 239 240 241 243 244 244 245 246 246 247 248 249 251 252 253 255 256 257 259 261 263 266 268 271 274 275 277 280 280 278 276 276 275 273 270 268 266 263 260 257 255 253 251 250 251 252 253 254 256 257 256 254 252 251 248 244 241 235 232
220 221 222 223 223 225 226 227 228 229 230 231 232 232 232 232 232 233 234 234 234 234 234 234 234 235 236 238 239 239 240 241 242 244 245 246 247 248 249 250 252 254 255 255 256 257 257 259 262 264 267 270 273 275 277 280 282 281 279 279 278 275 272 270 267 265 262 258 255 254 251 249 248 249 250 250 250 252 254 254 253 251 250 247 243 240 235 231
221 223 224 225 225 226 227 227 228 229 230 231 232 232 233 233 233 233 234 235 236 236 236 235 234 235 236 237 238 239 242 243 244 245 246 247 248 249 250 252 254 256 257 256 257 258 258 260 262 264 267 271 274 277 280 283 283 282 281 280 277 273 270 268 264 262 260 257 255 253 251 248 248 249 250 250 249 250 252 253 252 249 248 246 240 237 236 233
222 224 225 226 227 228 229 229 230 230 230 231 232 233 233 234 234 234 234 235 236 236 236 236 235 236 236 237 238 240 242 243 245 247 249 250 251 252 253 254 255 256 257 257 258 260 260 261 263 264 267 271 275 278 281 284 284 283 282 278 274 271 269 265 262 260 259 256 254 253 251 248 247 247 248 250 251 252 252 252 252 248 243 240 234 232 234 233
222 223 225 226 228 229 230 231 231 232 232 233 233 233 234 234 234 235 234 235 235 236 237 237 237 236 237 238 239 240 242 244 245 247 249 251 252 253 254 255 256 257 259 260 261 261 262 263 264 265 268 272 275 278 282 284 283 282 281 276 270 267 266 263 259 256 254 252 251 251 248 246 247 246 247 250 250 251 251 249 250 248 242 238 234 230 228 227
222 223 225 226 227 229 230 231 231 232 233 233 234 234 234 234 234 235 235 234 234 235 236 237 237 238 238 239 239 240 242 244 245 247 249 251 252 252 253 254 256 257 259 260 261 261 263 264 266 268 270 271 275 279 282 282 282 282 279 273 267 264 263 262 260 254 251 250 248 247 244 244 245 243 245 249 247 246 248 249 248 247 244 242 239 235 229 227
222 223 224 226 227 228 229 229 230 231 232 233 234 234 235 235 235 235 234 234 234 234 235 236 237 238 240 240 240 241 242 244 245 246 248 250 250 251 252 253 254 255 257 259 260 261 264 265 268 270 271 272 275 279 281 281 281 281 276 268 264 262 261 261 259 255 252 250 247 245 241 239 238 236 238 244 247 246 247 250 251 249 249 248 244 240 237 235
221 222 223 224 226 226 227 228 229 230 231 232 233 234 235 235 235 235 234 233 233 234 235 236 236 238 239 240 240 241 242 243 245 246 247 248 248 249 251 252 252 253 255 257 260 263 265 265 268 270 271 273 277 279 280 281 281 279 271 264 262 261 260 261 259 256 253 251 248 245 241 237 237 237 238 241 245 244 241 243 248 247 247 248 246 242 242 241
220 221 222 223 224 225 225 226 227 228 229 231 232 233 234 235 235 235 235 234 233 233 234 235 236 237 238 239 240 241 242 244 245 246 247 247 247 248 250 251 253 254 255 257 260 263 264 265 267 269 271 274 277 278 279 279 279 275 267 261 260 259 258 258 257 256 254 252 249 245 241 237 236 237 239 242 245 242 234 234 242 242 240 243 241 237 239 242
219 220 221 222 223 223 224 225 226 227 228 230 231 233 234 235 236 236 236 235 234 234 234 235 235 237 238 239 240 242 243 244 245 246 247 248 249 250 251 253 254 255 256 258 260 261 263 264 267 269 273 275 276 277 278 278 278 272 263 259 260 258 254 252 252 254 255 253 251 248 242 234 232 232 233 236 240 240 234 231 236 238 239 241 237 231 231 233
220 220 221 222 223 223 224 225 227 228 229 231 232 233 234 236 237 237 237 236 236 235 235 235 236 236 238 239 240 242 243 244 245 246 247 249 250 251 252 253 254 255 256 257 259 260 262 264 266 270 273 275 275 276 278 279 277 268 260 257 257 256 255 252 248 242 244 248 250 248 240 232 233 233 231 232 234 238 238 235 237 239 240 240 235 230 227 226
221 222 223 224 224 225 226 227 228 230 231 233 234 235 236 237 238 238 238 237 236 236 236 237 237 237 238 239 240 241 243 244 245 246 248 249 250 251 252 252 253 254 255 256 258 260 262 264 267 270 272 273 274 276 278 277 272 263 257 254 254 255 255 251 244 237 236 239 243 244 236 230 233 234 233 234 234 238 239 237 239 240 240 237 233 229 225 222
222 223 224 225 226 227 228 229 230 232 233 235 236 237 238 238 239 239 238 238 236 235 235 236 237 238 239 240 241 242 242 243 245 246 247 248 250 251 252 252 252 253 254 256 259 261 263 265 267 268 269 270 273 277 278 274 267 259 254 251 252 253 250 244 238 237 235 233 240 247 243 236 235 235 236 236 235 237 239 238 238 238 238 237 233 228 222 214
223 224 225 227 228 230 230 232 233 234 235 237 238 239 240 241 240 240 239 238 237 236 235 234 235 237 238 239 240 241 242 242 244 245 246 247 248 249 250 250 250 252 255 257 258 260 261 263 265 268 268 269 273 276 275 270 261 253 251 250 250 249 244 236 233 235 235 230 232 242 244 239 237 236 237 237 234 234 237 239 239 238 239 237 233 228 217 201
224 225 226 228 230 232 233 234 235 236 238 240 241 242 242 242 241 240 239 238 237 236 234 234 234 235 236 237 238 239 239 240 241 242 243 244 244 245 247 248 249 251 253 254 255 258 260 262 264 266 268 270 271 272 271 266 256 250 248 248 248 246 239 233 230 228 229 228 227 233 238 240 239 237 238 238 234 233 234 237 240 239 239 238 234 228 211 193
224 225 227 230 232 234 236 237 239 241 242 243 243 243 242 240 239 238 236 236 235 235 234 233 233 233 234 235 236 237 237 238 238 239 240 240 240 242 245 247 249 250 251 252 254 257 260 261 263 264 267 269 268 263 259 257 251 248 248 246 246 243 237 234 231 224 222 225 227 230 234 238 240 239 238 238 235 234 234 236 238 238 238 236 233 227 211 197
224 227 230 233 236 238 240 241 243 243 243 243 242 240 238 237 235 234 233 232 232 233 233 233 232 232 233 234 234 235 236 237 238 238 238 239 240 242 245 247 248 249 251 253 255 256 258 260 262 263 263 264 262 255 247 243 243 246 246 245 244 239 234 234 233 229 226 227 229 231 232 238 241 240 238 237 235 235 234 234 236 236 235 234 231 226 216 206
227 231 234 236 239 241 242 243 243 242 240 239 237 236 235 234 233 233 232 231 230 230 231 231 231 231 232 233 234 235 235 237 238 238 239 239 240 243 245 247 248 250 251 253 253 253 254 256 259 261 260 255 252 248 240 235 237 237 235 238 238 233 230 230 230 229 228 228 229 230 230 237 244 243 239 236 234 234 235 234 234 233 232 233 230 226 218 211
231 234 237 238 240 241 241 241 240 238 237 236 235 234 234 234 234 234 234 232 232 231 230 231 231 231 231 232 233 234 235 237 238 239 240 241 241 242 244 246 248 250 250 251 251 251 251 251 252 255 255 250 245 241 233 229 231 230 227 231 234 231 230 230 228 227 228 227 228 227 224 229 237 240 239 238 236 235 235 234 234 234 232 232 229 225 220 214
232 234 236 238 238 238 237 237 236 236 235 235 235 235 235 235 235 236 236 236 235 235 234 234 234 233 233 233 233 233 234 236 238 239 240 240 240 241 242 244 245 247 248 248 250 250 249 247 245 245 248 247 242 236 227 222 227 230 227 228 231 230 230 229 227 225 225 224 226 227 226 228 234 237 238 240 239 238 236 234 234 234 233 231 229 225 221 216
232 233 235 235 234 234 235 236 236 236 237 237 237 237 237 238 238 238 238 238 238 238 237 237 237 237 237 237 237 236 236 236 237 238 239 239 240 240 241 242 243 245 247 248 249 249 247 245 244 244 245 244 240 232 223 218 220 227 229 228 229 229 228 227 226 225 223 221 223 227 228 231 236 237 237 239 240 239 237 234 233 233 232 231 229 226 222 217
232 233 233 233 233 234 236 237 238 238 238 239 240 240 240 240 240 240 240 240 240 241 241 240 240 240 239 240 240 240 239 239 239 239 240 240 240 240 241 242 244 245 246 247 247 247 246 246 247 247 244 239 235 229 223 219 218 221 228 230 229 229 229 228 228 227 223 220 221 225 228 230 234 235 235 237 239 240 237 234 233 233 232 231 229 226 223 219